Location: Unspecified
(0.0000°N, 0.0000°E)
Time: 08:51:09
(UTC+00:00)

Interbol-2 - Pass Details

Date: 14 October 2024
Orbit: 757 x 19215 km, 62.8° (Epoch: 02 November)

Event Time Altitude Azimuth Distance (km) Brightness Sun altitude
Rises 22:27:23 0° 181° (S) 5,493 10.0 -68.7°
Enters shadow 22:29:21 - 175° (S) 5,180 9.8 -69.1°
Exits shadow 23:12:45 39° 47° (NE) 12,158 11.1 -78.1°
Drops below altitude 10° 00:41:11 10° 24° (NNE) 23,251 12.9 -73.7°
Sets 01:22:13 0° 24° (NNE) 24,638 13.2 -64.5°
